User: anonymous   Login
Location: Unspecified
(0.0000°N, 0.0000°E)
Time: 01:52:13
(UTC+02:00)
Language:

ISS - Orbit

View from above orbital plane
View from above orbital plane
View from above satellite
View from above satellite

Ground track
Ground track

The orbit data is extracted from the following two-line orbital elements,

1 25544U 98067A   14297.91794905  .00021534  00000-0  37302-3 0  2960
2 25544 051.6455 176.5118 0002318 300.6837 148.5005 15.50842315911455
Epoch (UTC): 24 October 2014 22:01:50
Eccentricity: 0.0002318
inclination: 51.6455°
perigee height: 412 km
apogee height: 416 km
right ascension of ascending node: 176.5118°
argument of perigee: 300.6837°
revolutions per day: 15.50842315
mean anomaly at epoch: 148.5005°
orbit number at epoch: 91145

The dashed part of the orbit path shows where the satellite is in the earth's shadow,  

DLR